Location: *
(42.9833°N, 13.3500°E)
Time: 09:40:47
(UTC+00:00)

Daily predictions for brighter satellites

Satellite Brightness Start Highest point End
(mag) Time Altitude Azimuth Time Altitude Azimuth Time Altitude Azimuth
Cosmos 2221 4.1 16:37:43 10° NE 16:40:11 15° ENE 16:42:40 10° ESE
Cosmos 2082 3.7 16:34:56 10° SSW 16:40:32 78° ESE 16:46:11 10° NNE
Cosmos 44 Rocket 4.3 16:37:28 10° S 16:41:31 27° ESE 16:45:31 10° NE
Cosmos 2219 4.4 16:37:10 10° SW 16:42:28 42° WNW 16:47:49 10° NNE
YAOGAN 6 3.0 16:40:48 10° SE 16:44:14 40° ENE 16:47:40 10° N
Cosmos 2297 Rocket 2.9 16:39:06 10° SW 16:44:38 56° WNW 16:50:13 10° NNE
Cosmos 2366 rocket 4.2 16:40:23 10° SSE 16:46:24 54° E 16:52:31 10° NNE
IRS-1C Rocket 4.3 16:41:33 10° S 16:46:48 79° WSW 16:52:05 10° NNW
Cosmos-2242 2.9 16:42:38 10° N 16:46:58 80° E 16:51:13 10° S
Cosmos 1939 Rocket 4.3 16:45:46 10° ESE 16:48:24 17° ENE 16:51:03 10° NNE
Cosmos 2263 Rocket 3.6 16:46:02 10° SE 16:49:40 18° E 16:53:18 10° ENE
NOAA 12 4.1 16:44:43 10° SSE 16:49:56 81° ENE 16:55:13 10° NNW
Okean O Rocket 4.3 16:48:10 10° SSW 16:51:50 25° W 16:55:31 10° NW
H-2A R/B 4.1 16:52:20 10° S 16:56:03 46° W 16:59:50 10° NNW
Cosmos 2227 Rocket 3.1 16:52:49 10° SW 16:58:17 48° WNW 17:03:46 10° NNE
SKYMED 2 3.7 16:58:37 10° NNE 17:02:54 56° E 17:07:10 10° S
Meteor 1-11 4.4 16:57:46 10° SSE 17:03:09 51° E 17:08:33 10° NNE
Okean-O 2.6 16:59:24 10° SSE 17:03:49 84° ENE 17:08:17 10° NNW
Atlas Centaur 2 3.8 17:02:59 10° SSW 17:05:27 15° S 17:08:11 10° SE
YAOGAN 1 2.8 17:10:44 10° SE 17:14:51 45° ENE 17:18:59 10° N
Cosmos 1943 4.0 17:10:53 10° N 17:15:49 29° NE 17:20:43 10° ESE
Cosmos 2251 Rocket 3.7 17:12:39 10° NNW 17:17:59 81° WSW 17:23:19 10° SSE
SL-8 Rocket 4.4 17:12:19 10° SSW 17:18:36 69° W 17:24:52 10° N
Cosmos 1727 Rocket 3.9 17:12:37 10° N 17:18:48 68° E 17:24:56 10° SSE
Starlink AS 4.5 17:20:20 10° NNW 17:22:29 18° NNE 17:22:58 18° NNE
Envisat 3.8 17:17:34 10° S 17:22:32 55° W 17:27:32 10° NNW
Starlink BA 4.5 17:20:32 10° NNW 17:22:42 18° NNE 17:23:10 18° NNE
Starlink AU 4.5 17:20:47 10° NNW 17:22:56 18° NNE 17:23:24 18° NNE
Starlink AT 4.5 17:21:00 10° NNW 17:23:10 18° NNE 17:23:37 18° NNE
Starlink BB 4.5 17:21:12 10° NNW 17:23:22 18° NNE 17:23:49 18° NNE
H-2A R/B 3.6 17:24:06 15° NE 17:24:06 15° NE 17:26:17 10° NNE
Starlink BC 4.5 17:21:26 10° NNW 17:23:36 18° NNE 17:24:02 18° NNE
Starlink BK 4.5 17:21:40 10° NNW 17:23:50 18° NNE 17:24:15 18° NNE
Starlink AY 4.4 17:21:53 10° NNW 17:24:03 19° NNE 17:24:29 18° NNE
Starlink AW 4.4 17:22:07 10° NNW 17:24:18 19° NNE 17:24:41 18° NNE
Starlink BJ 4.4 17:22:19 10° NNW 17:24:30 19° NNE 17:24:54 18° NNE
Starlink AV 4.4 17:22:33 10° NNW 17:24:45 19° NNE 17:25:08 18° NNE
CSL-04 Debris 4.2 17:19:39 10° SSE 17:24:55 58° ENE 17:30:14 10° N
Starlink BD 4.4 17:22:47 10° NNW 17:24:58 19° NNE 17:25:21 18° NNE
Starlink BE 4.4 17:22:57 10° NNW 17:25:11 19° NNE 17:25:34 18° NNE
Starlink BM 4.4 17:23:14 10° NNW 17:25:25 19° NNE 17:25:46 18° NNE
Starlink AX 4.4 17:23:28 10° NNW 17:25:39 19° NNE 17:25:59 18° NNE
USA 267 3.8 17:19:22 10° NE 17:25:40 52° NNW 17:31:57 10° WSW
Starlink BH 4.4 17:23:40 10° NNW 17:25:52 19° NNE 17:26:12 19° NNE
Starlink AZ 4.4 17:23:53 10° NNW 17:26:05 19° NNE 17:26:25 19° NNE
Starlink BG 4.4 17:24:07 10° NNW 17:26:20 19° NNE 17:26:38 19° NNE
Starlink BF 4.4 17:24:20 10° NNW 17:26:32 19° NNE 17:26:51 19° NNE
FengYun 1-2 T 4.4 17:21:03 10° S 17:26:41 79° WSW 17:32:23 10° NNW
Starlink BL 4.4 17:24:30 10° NNW 17:26:45 19° NNE 17:27:05 19° NNE
Starlink AH 4.4 17:24:48 10° NNW 17:27:01 19° NNE 17:27:18 19° NNE
Starlink AC 4.4 17:25:01 10° NNW 17:27:14 19° NNE 17:27:30 19° NNE
Starlink X 4.4 17:25:15 10° NNW 17:27:28 19° NNE 17:27:43 19° NNE
Starlink AE 4.4 17:25:25 10° NNW 17:27:40 20° NNE 17:27:59 19° NNE
Starlink Z 4.4 17:25:42 10° NNW 17:27:55 19° NNE 17:28:10 19° NNE
Starlink AQ 4.4 17:25:41 10° NNW 17:27:55 19° NNE 17:28:10 19° NNE
Starlink AK 4.4 17:25:54 10° NNW 17:28:08 19° NNE 17:28:22 19° NNE
Starlink AL 4.4 17:26:08 10° NNW 17:28:22 19° NNE 17:28:35 19° NNE
Starlink AD 4.4 17:26:21 10° NNW 17:28:35 19° NNE 17:28:48 19° NNE
Starlink Y 4.4 17:26:48 10° NNW 17:29:03 19° NNE 17:29:15 19° NNE
Starlink AG 4.4 17:27:01 10° NNW 17:29:16 19° NNE 17:29:27 19° NNE
Starlink W 4.4 17:27:12 10° NNW 17:29:29 20° NNE 17:29:42 20° NNE
Starlink AJ 4.4 17:27:28 10° NNW 17:29:43 20° NNE 17:29:53 20° NNE
Starlink B 4.5 17:27:33 10° NW 17:30:09 22° NNE 17:30:39 21° NNE
Starlink AM 4.4 17:27:55 10° NNW 17:30:10 20° NNE 17:30:18 20° NNE
Starlink AP 4.4 17:28:09 10° NNW 17:30:24 20° NNE 17:30:32 20° NNE
Starlink AA 4.4 17:28:22 10° NNW 17:30:38 20° NNE 17:30:45 20° NNE
Starlink AF 4.4 17:28:35 10° NNW 17:30:52 20° NNE 17:30:58 20° NNE
STARLINK-67 3.4 17:28:49 10° SSW 17:31:04 29° SE 17:31:10 29° SE
Starlink AB 4.4 17:28:48 10° NNW 17:31:04 20° NNE 17:31:10 20° NNE
Starlink AN 4.4 17:29:02 10° NNW 17:31:18 20° NNE 17:31:24 20° NNE
CZ-4 R/B 1.4 17:27:48 10° SSE 17:31:54 90° N 17:36:06 10° NNW
ISS -1.8 17:29:44 10° WNW 17:32:19 20° N 17:33:39 16° NNE
CENTAUR R/B 3.8 17:29:42 10° SE 17:33:25 17° ESE 17:33:27 17° ESE
FALCON 9 R/B 4.2 17:18:22 10° SW 17:38:39 38° S 17:43:55 17° ESE
NOSS 3-2 (A) 3.7 17:36:49 10° S 17:42:05 42° ESE 17:45:13 24° ENE
CSL-04 Rocket 3.6 17:37:12 10° SSE 17:42:43 81° ENE 17:48:19 10° NNW
ATLAS CENTAUR R/B 2.4 17:39:20 10° NW 17:43:04 42° WSW 17:46:33 10° S
Cosmos 1371 Rocket 4.2 17:40:01 10° S 17:44:56 47° ESE 17:48:03 22° NE
Cosmos 407 Rocket 3.7 17:40:14 10° N 17:45:20 47° ENE 17:50:00 12° SE
Starlink D 4.3 17:43:51 10° NW 17:46:27 26° NNE 17:46:27 26° NNE
Cosmos 1190 Rocket 4.3 17:42:06 10° N 17:47:10 43° ENE 17:50:25 20° SE
Starlink S 4.3 17:46:07 10° NW 17:48:39 26° NNE 17:48:39 26° NNE
COSMO-SKYMED 1 3.7 17:46:48 10° N 17:50:55 44° WNW 17:55:03 10° SW
Starlink AR 4.5 17:48:46 10° NW 17:50:06 20° N 17:50:06 20° N
Starlink C 4.3 17:48:23 10° NW 17:50:51 26° N 17:50:51 26° N
Meteor 2-2 Rocket 4.3 17:45:27 10° N 17:51:29 69° ENE 17:57:25 10° SSE
Cosmos 1842 Rocket 3.8 17:47:18 10° NNW 17:51:48 74° W 17:56:16 10° S
Cosmos 1821 Rocket 3.9 17:46:41 10° S 17:52:59 71° E 17:59:15 10° NNE
Starlink E 4.3 17:50:40 10° NW 17:53:03 27° N 17:53:03 27° N
Starlink J 4.4 17:52:59 10° NW 17:55:18 27° N 17:55:18 27° N
Starlink V 4.4 17:55:17 10° NW 17:57:31 27° N 17:57:31 27° N
USA 234 3.6 17:53:04 10° SE 17:59:34 66° SW 18:06:04 10° NW
Shenzhou-11 Module 2.7 17:57:42 10° W 17:59:58 44° SW 17:59:58 44° SW
Starlink H 4.4 17:57:37 10° NW 17:59:47 27° N 17:59:47 27° N
Starlink F 4.5 17:59:55 10° NW 18:02:01 27° N 18:02:01 27° N
Cosmos 1605 Rocket 4.5 17:58:51 10° SSE 18:11:37 - NNE 18:04:21 35° E
Iridium 45 4.5 18:01:08 10° N 18:05:04 78° E 18:08:41 10° S
IRS-1A Rocket 4.3 17:59:48 10° SSE 18:05:23 56° ENE 18:10:53 10° N
Ariane Rocket 2.9 18:00:55 10° SSE 18:05:53 59° ENE 18:10:54 10° N
USA 116 4.4 18:05:44 18° N 18:07:44 40° WNW 18:10:42 10° SW
ADEOS Rocket 3.3 18:01:27 10° NNE 18:08:24 73° ESE 18:15:57 10° S
In-Cosmos 22 Rocket 4.2 18:04:08 10° S 18:09:41 58° E 18:13:16 21° NNE
CZ-2D R/B 3.9 18:06:02 10° S 18:09:47 54° W 18:13:35 10° NNW
Cosmos 1624 Rocket 3.9 18:06:22 10° S 18:11:38 72° ESE 18:13:51 35° NNE
Cosmos 1869 3.2 18:13:23 10° N 18:17:23 85° W 18:18:29 46° S
Cosmos 2221 3.4 18:13:54 10° NNW 18:18:03 49° W 18:22:12 10° SSW
Cosmos 614 Rocket 4.0 18:12:59 10° NNW 18:18:13 82° WSW 18:23:26 10° SSE
BREEZE-M DEB (TANK) 4.1 18:06:04 10° WNW 18:20:00 55° N 18:21:13 45° NE
SL-8 R/B 4.2 18:15:36 10° WNW 18:20:13 44° N 18:20:30 43° NNE
Cosmos 1076 Rocket 3.6 18:17:41 10° SSW 18:21:59 73° W 18:24:11 28° N
Cosmos 2123 Rocket 3.9 18:15:46 10° N 18:22:04 69° E 18:28:16 10° SSE
Cosmos 1934 Rocket 3.8 18:16:37 10° S 18:22:39 74° E 18:28:42 10° N
Cosmos 44 Rocket 4.4 18:18:22 10° WSW 18:22:52 40° NW 18:25:12 24° N
Cosmos 1939 Rocket 4.2 18:19:20 10° SSW 18:23:00 38° W 18:26:47 10° NNW
USA 238 DEB 3.6 18:16:26 10° SSW 18:23:06 89° SE 18:26:24 34° NE
USA 238 3.5 18:16:33 10° SSW 18:23:13 88° SE 18:26:28 34° NE
ARGOS 4.2 18:27:20 31° NNE 18:27:20 31° NNE 18:30:20 10° N
Cosmos 2056 Rocket 3.5 18:22:31 10° SSW 18:27:48 86° WNW 18:29:44 41° NNE
CZ-2C R/B 4.3 18:32:12 31° NNE 18:32:12 31° NNE 18:35:22 10° N
Cosmos 1603 4.2 18:26:06 10° NNW 18:31:39 58° WSW 18:37:08 10° S
Cosmos 2263 Rocket 2.5 18:27:28 10° SW 18:32:58 65° WNW 18:35:48 29° N
Cosmos 1023 Rocket 4.4 18:30:42 10° NNW 18:36:00 87° WSW 18:36:45 67° SSE
Cosmos 2058 3.8 18:39:56 10° SSW 18:43:55 46° WNW 18:43:58 46° WNW
Cosmos 1140 Rocket 3.6 18:42:01 10° NNW 18:47:16 72° WSW 18:47:38 69° SW
ATLAS 5 CENTAUR R/B 4.1 18:43:54 10° NW 18:49:41 78° NE 19:16:51 10° SE
Atlas Centaur 2 4.1 18:51:08 10° SW 18:53:17 14° SSW 18:53:17 14° SSW
NOSS 3-3 (A) 4.5 18:49:16 10° NW 18:56:54 84° SW 18:59:19 51° SSE
NOSS 3-3 (C) 4.5 18:49:22 10° NW 18:57:00 85° SW 18:59:21 52° SSE
Cosmos 1943 4.2 18:54:40 10° NW 19:00:01 45° WSW 19:03:01 24° SSW
H-2A R/B 3.4 19:04:42 30° NNW 19:04:42 30° NNW 19:07:17 10° NNW
ATLAS 3B R/B 3.6 19:00:53 10° SSW 19:04:32 34° S 19:04:32 34° S
NOSS 3-2 (C) 3.8 19:10:10 10° SW 19:14:42 55° WSW 19:14:42 55° WSW
CENTAUR R/B 3.3 19:17:03 10° SW 19:20:42 42° SW 19:20:42 42° SW
